Showing default

YAOGAN-30 W, 46809

Orbit data source: Space-Track

YAOGAN-30 W, 46809 is a payload satellite owned by PLA SSF (CN) in LEO that was launched on Mon, 26 Oct 2020 UTC via a CHANG ZHENG 2C launch vehicle from the Xichang Space Center, China (XSC). Payload-class satellites include a variety of spacecraft equipped with specific instruments for various scientific and technological missions. These include communications satellites like Starlink; space stations such as the ISS; scientific satellites like the Hubble; Earth observation satellites from companies like Planet Labs, Umbra, and HawkEye 360; GPS; miniature CubeSats for education and research; and military/defense satellites.

Loading next visibility...
Identifier
46809, 2020-076C
Orbit
LEO
Country
Flag of CNCN / PRC
Related business
Manufacturer
SECM
Mission
Operational Defense Sigint
Bus & Motor
Unknown
Mass
~500 kg wet, ~500 kg dry
Launch date (UTC)
2020-10-26 (6 years ago)
Launch vehicle
CHANG ZHENG 2C
Launch site
Xichang Space Center, China (XSC)
Object type
Payload
Rocket body
Debris
Shape & HBR
Box + 2 Pan, 0.5 m
Radar Cross Section
0.446 m², Large (>1 m²)

Expand to show TLE details & history
Last TLE update: 6 hours ago

TLE from 6 hours ago
0 YAOGAN-30 W
1 46809U 20076C   26126.54256054  .00003730  00000-0  27732-3 0  9997
2 46809  34.9973 344.6565 0005593  57.8084 302.3166 15.02493293301879
Epoch: 2026-05-06T13:01Z
TLE epoch observation values (Epoch: 2026-05-06T13:01:17.230Z)
Latitude
-0.00003°
Longitude
-75.06689°
Altitude
556.055 km
Speed
7.587 km/s
True Right ascension
22h 58m 37s
True Declination
0° 00' 00"
Sunlit
Object was in daylight at epoch
Visualization orbit readout
Latitude
Unknown
Longitude
Unknown
Altitude
Unknown
Speed
Unknown
Apparent Right ascension
Unknown
Apparent Declination
Unknown
Sunlit
N/A
Visualization observer readout
Local Sidereal Time
02:29:42
Azimuth
Unknown
Elevation
Unknown
Doppler factor
Unknown
Orbital elements
Apogee altitude
566.314 km
Perigee altitude
558.551 km
Semi-major axis
6,940.569 km
Eccentricity
0.00056
Inclination
34.9973°
RAAN
344.6565°
Arg. of periapsis
57.8084°
True anomaly
302.26242°
Mean anomaly
302.3166°
Eccentric anomaly
302.28951°
Mean motion
3.75362 °/min
Orbital period
95.91 mins
BSTAR
0.00027732
Loading maneuver chart data...
Computing Atmospheric mass density...
Loading historical data...
Loading historical data...
Loading historical data...
Loading historical data...
Loading historical data...
Loading historical data...
Loading historical data...
Other satellites on launch #76 in the year 2020 (2020-10-26 UTC)

Documentation

Showing up to 5 results
|